FW4632 Weather Reports


time (UTC)temp
F
wind
direction
speed
knots
gust
knots
rain 1hr
in
rain 24hr
in
rain mn
in
humidity
%
barometer
mb
20260506124532 35 127 0.0 0.9 0.00 0.17 0.10 81 1008.9
20260506123031 35 127 0.0 1.7 0.00 0.17 0.10 82 1008.9
20260506121529 36 127 0.9 1.7 0.01 0.17 0.10 82 1008.9
20260506120030 35 130 0.0 1.7 0.01 0.17 0.10 89 1008.8
20260506114527 31 297 0.0 1.7 0.01 0.17 0.10 91 1008.7
20260506113023 30 297 0.9 3.5 0.01 0.17 0.10 92 1008.7
20260506111521 29 323 2.6 8.7 0.00 0.17 0.09 92 1008.6
20260506110020 30 304 6.1 8.7 0.00 0.17 0.09 89 1008.5
20260506104516 32 309 4.3 6.1 0.00 0.17 0.09 78 1008.2
20260506103015 37 176 0.0 1.7 0.01 0.17 0.09 74 1008.0
20260506101510 36 176 0.0 1.7 0.02 0.17 0.09 77 1007.9
20260506100010 35 176 0.0 1.7 0.02 0.19 0.09 79 1007.8
20260506094506 36 179 0.0 1.7 0.02 0.19 0.09 82 1007.8
20260506093004 36 179 0.0 1.7 0.02 0.18 0.09 83 1007.7
20260506091559 34 172 0.9 2.6 0.02 0.17 0.08 84 1007.7
20260506090100 34 200 0.9 4.3 0.02 0.19 0.08 86 1007.6
20260506084558 33 176 1.7 6.1 0.02 0.18 0.07 88 1007.6
20260506083058 32 260 3.5 7.0 0.04 0.18 0.07 90 1007.5
20260506081552 32 291 1.7 4.3 0.04 0.17 0.06 87 1007.3
20260506080104 34 270 1.7 3.5 0.06 0.20 0.06 92 1007.2
20260506073052 30 327 1.7 3.5 0.03 0.17 0.03 91 1006.9
20260506071543 31 240 0.0 2.6 0.02 0.16 0.02 92 1006.8
20260506061536 31 240 2.6 4.3 0.00 0.13 0.00 93 1006.3
20260506044536 29 240 4.3 7.0 0.00 0.13 0.00 94 1005.5
20260506043024 29 247 3.5 6.1 0.00 0.13 0.00 94 1005.4
20260506041527 29 180 2.6 4.3 0.00 0.13 0.00 94 1005.2
20260506040019 28 300 1.7 3.5 0.00 0.13 0.00 94 1005.2
20260506034519 28 311 2.6 3.5 0.00 0.13 0.00 94 1005.1
20260506033017 28 291 2.6 4.3 0.00 0.13 0.00 93 1005.0
20260506031517 27 248 0.0 1.7 0.00 0.13 0.00 93 1004.9
20260506030013 27 243 2.6 5.2 0.00 0.13 0.00 94 1004.7
20260506024517 27 292 1.7 4.3 0.00 0.13 0.00 93 1004.6
20260506023017 27 318 1.7 2.6 0.00 0.13 0.00 93 1004.5
20260506021508 27 316 1.7 4.3 0.00 0.13 0.00 93 1004.4
20260506020006 27 310 2.6 5.2 0.00 0.13 0.00 95 1004.3
20260506014505 27 246 2.6 4.3 0.00 0.13 0.00 95 1004.3
20260506013003 27 231 2.6 4.3 0.00 0.13 0.00 95 1004.2
20260506011624 28 259 0.9 2.6 0.00 0.13 0.00 95 1004.1
20260506010119 28 259 0.0 1.7 0.00 0.13 0.00 95 1004.1
20260506004557 28 250 0.0 1.7 0.00 0.13 0.00 95 1004.0
20260506003058 28 250 0.9 1.7 0.00 0.13 0.00 96 1004.0
20260506001557 28 250 0.0 1.7 0.00 0.13 0.00 95 1003.9
20260506000058 28 250 0.0 2.6 0.00 0.13 0.00 95 1003.9
20260505234551 29 250 1.7 2.6 0.00 0.13 0.00 95 1003.8
20260505233049 29 245 1.7 3.5 0.00 0.13 0.00 96 1003.8
20260505231546 28 282 1.7 2.6 0.00 0.13 0.00 95 1003.8
20260505230045 29 281 0.9 2.6 0.00 0.13 0.00 95 1003.7
20260505224544 29 269 0.0 1.7 0.00 0.13 0.00 95 1003.6
20260505223043 29 269 0.9 2.6 0.00 0.13 0.00 95 1003.6
20260505221546 28 296 1.7 1.7 0.00 0.13 0.00 95 1003.5
20260505220052 29 296 0.0 1.7 0.00 0.13 0.13 95 1003.5
20260505214541 29 301 2.6 3.5 0.00 0.13 0.13 95 1003.4
20260505213039 29 305 0.0 2.6 0.00 0.13 0.13 95 1003.4
20260505211539 29 306 0.0 3.5 0.00 0.13 0.13 95 1003.3
20260505210044 29 260 0.9 3.5 0.00 0.13 0.13 95 1003.2
20260505204532 30 259 3.5 5.2 0.00 0.13 0.13 95 1003.1
20260505203033 30 241 2.6 6.1 0.00 0.13 0.13 95 1003.0
20260505201530 30 264 2.6 4.3 0.00 0.13 0.13 95 1003.0
20260505200030 30 273 2.6 4.3 0.00 0.13 0.13 95 1002.9
20260505194529 30 256 2.6 5.2 0.00 0.13 0.13 95 1002.8
20260505193035 30 245 3.5 5.2 0.00 0.13 0.13 95 1002.8
20260505191526 30 238 3.5 5.2 0.00 0.13 0.13 94 1002.7
20260505190025 30 245 2.6 5.2 0.01 0.13 0.13 95 1002.6
20260505184526 31 241 4.3 6.1 0.02 0.13 0.13 95 1002.5
20260505183034 31 180 3.5 7.0 0.02 0.13 0.13 95 1002.5
20260505181522 31 220 3.5 6.1 0.02 0.13 0.13 95 1002.3
20260505180024 31 240 3.5 7.8 0.02 0.13 0.13 95 1002.2
20260505174519 31 180 4.3 7.0 0.01 0.12 0.12 95 1002.2
20260505173019 31 252 3.5 5.2 0.02 0.12 0.12 95 1002.1
20260505171517 31 240 4.3 5.2 0.01 0.11 0.11 95 1002.0
20260505170017 31 259 2.6 4.3 0.01 0.11 0.11 95 1002.0
20260505164516 31 278 3.5 6.1 0.01 0.11 0.11 95 1002.0
20260505163014 31 180 3.5 6.1 0.01 0.10 0.10 94 1001.8
20260505161513 31 274 6.1 7.8 0.02 0.10 0.10 94 1001.8
20260505153009 31 180 4.3 7.8 0.02 0.09 0.09 94 1001.5
20260505151509 31 232 3.5 5.2 0.01 0.09 0.09 94 1001.4
20260505140108 32 245 5.2 8.7 0.01 0.08 0.08 93 1000.8